TECHSAT 1B (GO-32)

Last updated on Thu Oct 23 2025 00:02:37 GMT+0000 (Coordinated Universal Time)

1 25397U 98043D 25295.49738083 .00000159 00000+0 89060-4 0 9996 2 25397 98.9872 277.5375 0001621 140.4640 219.6656 14.24355434417491
UTC large
Height (km)
Speed (km/s)
/
Latitude / Longitude
Inclination (degrees)
Orbital Period (minutes)
Azimuth
Elevation
Range (km)
Doppler Factor

Next 0 passes for location: London (51.5072 / 0.1276)

Sorry there are no passes over London.